Temperature
22 22 22 21 21 21 21 22 22 23 23 23 23 22 21 20 20 19 18 18 17 17 17 16 16 16 15 15 15 15 15 14 14 14 14 14 14 14 13 13 13 13 13 13
21 21 21 21 21 21 21 22 22 22 22 23 22 21 21 20 19 18 18 17 17 17 16 16 16 16 15 15 15 15 14 14 14 14 14 14 14 13 13 13 13 13 13 13
21 21 20 21 22 22 21 22 22 22 23 23 22 21 20 20 19 18 18 17 17 17 17 16 16 16 15 15 15 15 14 14 14 14 14 14 13 13 13 13 13 13 12 12
20 20 20 22 22 21 21 22 22 22 22 21 21 20 19 18 18 18 17 17 17 17 16 16 16 15 15 15 14 14 14 14 14 14 13 13 13 13 13 13 13 12 12 12
20 20 21 21 21 21 21 21 22 21 21 20 19 19 19 18 17 17 16 16 16 16 16 16 16 15 15 15 14 14 14 14 14 13 13 13 13 13 13 12 12 12 12 12
19 19 20 21 21 20 21 21 21 20 20 19 19 21 21 17 16 16 16 16 16 16 15 15 15 15 15 14 14 14 14 14 13 13 13 13 13 13 12 12 12 12 12 12
19 19 20 21 19 19 20 21 20 19 19 18 19 20 18 16 16 15 15 15 15 15 15 15 15 15 14 14 14 14 13 13 13 13 12 12 12 12 12 12 12 12 12 11
19 19 19 19 19 20 20 19 18 18 18 17 17 17 16 16 15 15 15 15 15 15 15 15 15 14 14 14 14 13 13 13 12 12 12 12 12 12 12 12 12 11 11 11
19 20 19 18 18 18 17 18 18 17 17 16 16 16 15 15 15 15 14 14 14 14 14 14 14 14 14 14 13 13 13 12 12 12 12 12 12 12 11 11 11 11 11 11
18 19 18 17 16 16 16 16 16 16 16 16 15 15 15 15 15 14 14 14 14 14 14 14 14 14 13 13 13 12 12 12 12 11 11 11 11 11 11 11 11 11 10 10
18 18 17 16 16 16 16 15 15 15 15 15 15 15 14 14 14 14 14 14 14 14 14 13 13 13 13 13 12 12 12 11 11 11 11 11 11 11 11 11 10 10 10 10
18 18 18 17 16 16 15 15 15 15 15 15 14 14 14 14 14 14 13 13 13 13 13 13 13 13 13 12 12 12 11 11 11 10 10 10 10 10 10 10 10 10 10 9
16 15 15 15 15 15 15 15 15 14 14 14 14 14 14 13 13 13 13 13 13 13 13 13 13 13 12 12 12 11 11 11 10 10 10 10 10 10 10 10 9 9 9 9
14 14 14 14 14 14 14 14 14 14 14 14 13 13 13 13 13 13 13 13 12 12 12 12 12 12 12 12 11 11 11 10 10 10 10 9 9 9 9 9 9 9 9 9
13 13 13 13 13 13 13 13 13 13 13 13 13 13 13 12 12 12 12 12 12 12 12 12 12 12 11 11 11 10 10 10 10 10 9 9 9 9 8 8 8 8 8 8
13 13 12 12 12 12 12 12 12 12 12 12 12 12 12 12 12 12 12 12 11 11 12 11 12 11 11 11 10 10 10 10 10 9 9 9 9 8 8 8 8 8 8 8
12 12 12 12 12 12 12 12 12 12 12 12 12 12 12 11 11 11 11 11 11 11 11 11 11 11 11 10 10 10 9 9 9 9 9 9 8 8 8 7 7 7 7 7
12 12 12 12 12 12 12 11 11 11 12 12 11 11 11 11 11 11 11 11 11 11 10 10 10 10 10 10 10 9 9 9 9 8 8 8 8 8 7 7 7 7 7 7
12 11 11 11 11 11 11 11 11 11 11 11 11 11 11 11 11 11 11 10 10 10 10 10 10 10 10 10 9 9 8 8 8 8 8 8 7 7 7 7 6 6 6 6
11 11 11 10 11 11 11 11 10 10 11 11 10 10 10 10 10 10 10 10 10 10 10 10 9 9 9 9 9 8 8 8 8 7 7 7 7 7 6 6 6 6 5 5
10 10 10 10 10 10 10 10 10 10 10 10 10 10 10 10 10 9 9 9 10 9 9 9 9 9 9 8 8 8 8 7 7 7 7 6 6 6 6 6 5 5 5 5
9 9 9 9 10 10 10 10 9 9 9 9 9 9 9 9 9 9 9 9 9 9 9 8 8 8 8 8 8 7 7 7 7 6 6 6 6 6 5 5 5 5 4 4
9 9 9 9 9 9 9 9 9 9 9 9 9 9 9 9 8 8 8 8 8 8 8 8 8 8 8 8 7 7 7 7 6 6 6 5 5 5 5 5 4 4 4 4
8 8 8 8 8 8 8 8 8 8 8 8 8 8 8 8 8 8 8 8 8 8 7 7 7 7 7 7 7 6 6 6 6 6 5 5 5 4 4 4 4 3 3 3
7 7 7 7 7 7 7 7 7 7 7 7 7 7 7 7 7 7 7 7 7 7 7 7 7 7 7 6 6 6 6 6 6 5 5 4 4 4 4 3 3 3 3 3
7 7 7 7 7 7 7 7 7 6 6 6 7 7 7 7 7 6 7 7 7 6 6 6 6 6 6 6 5 5 5 5 5 4 4 4 4 3 3 3 3 2 2 2
6 6 6 6 6 6 6 6 6 6 6 6 6 6 6 6 6 6 6 6 6 6 6 6 5 5 5 5 5 5 4 4 4 4 3 3 3 3 2 2 2 2 2 2
Wind_Speed
9 8 8 9 10 10 12 13 13 12 12 10 8 6 5 5 4 3 3 3 3 4 4 5 5 5 5 5 5 5 6 6 5 5 5 5 5 5 5 4 4 4 5 4
10 9 9 11 11 12 13 13 14 13 13 9 7 6 5 5 4 3 3 3 3 4 4 5 5 5 5 5 5 5 5 5 5 4 4 4 5 5 5 5 5 5 5 5
10 8 8 12 12 13 12 11 12 13 11 6 6 6 6 5 4 4 3 3 3 4 4 5 5 6 6 5 5 5 5 4 4 4 4 4 5 5 5 5 5 5 5 5
8 8 12 6 2 6 10 11 11 11 8 7 7 6 6 5 4 4 4 3 3 3 3 4 4 5 5 5 5 5 5 4 4 4 4 4 5 5 6 5 5 5 5 5
7 10 11 8 5 6 8 9 7 9 7 6 4 5 5 3 3 4 4 3 3 2 2 3 4 4 4 4 4 4 4 4 4 4 4 4 5 5 5 5 5 5 5 5
8 9 9 4 2 3 6 8 2 4 4 4 3 5 3 1 2 3 2 2 2 2 2 3 3 4 4 4 4 4 4 4 3 3 4 4 5 5 5 5 5 5 4 5
12 11 9 3 1 4 7 3 2 2 3 4 4 4 2 1 1 1 1 1 1 2 2 2 3 4 4 4 4 4 3 3 3 3 4 4 4 4 5 5 5 5 5 4
9 10 8 2 3 5 3 3 2 2 2 3 3 3 2 1 1 1 1 1 2 2 2 2 3 4 4 4 3 3 3 3 3 3 3 3 3 3 4 5 5 5 4 4
8 6 2 2 4 3 3 4 3 4 3 3 4 4 3 3 2 2 2 2 2 2 2 2 3 4 4 3 3 3 3 3 3 3 3 3 3 3 4 4 4 4 4 4
9 9 6 5 6 7 6 6 6 6 5 5 5 5 5 4 3 3 3 3 2 3 3 3 3 3 4 3 3 4 4 4 3 3 3 3 3 3 3 4 4 4 4 4
12 11 9 9 9 9 8 8 8 8 7 6 6 5 5 5 5 4 4 3 4 4 4 4 3 3 3 3 4 4 4 4 3 3 3 3 3 3 3 3 3 4 4 4
12 11 11 11 9 9 10 9 9 8 8 7 7 6 6 6 5 5 5 4 4 4 5 4 4 3 3 3 4 4 4 4 3 3 3 3 3 2 1 2 2 2 3 4
13 12 12 12 10 9 10 10 10 9 9 8 7 6 7 6 6 5 5 5 5 5 4 4 4 3 3 3 4 5 5 4 3 3 3 4 4 4 3 3 4 4 4 4
12 10 12 11 11 10 10 10 9 9 8 7 7 6 6 6 6 6 6 6 5 5 4 5 4 4 3 4 4 5 5 4 4 4 4 4 4 4 4 4 4 3 4 5
12 12 13 12 11 11 9 9 9 8 7 7 6 6 6 7 7 7 6 5 5 5 5 5 5 5 4 5 5 6 5 4 4 4 4 4 5 4 4 5 4 4 3 3
12 12 12 12 12 11 10 10 10 9 8 7 7 7 6 6 6 5 5 5 6 6 6 5 6 5 4 5 5 5 5 5 5 4 4 4 5 5 5 5 5 4 4 3
11 11 11 11 11 11 11 11 11 10 9 8 7 6 6 5 5 5 5 6 6 6 6 6 5 4 5 6 6 5 5 5 6 5 5 5 5 5 5 5 5 5 4 3
12 13 12 12 12 11 11 10 10 10 9 8 7 6 6 6 6 5 5 5 5 6 6 5 5 5 5 6 6 5 5 5 5 5 5 5 5 5 5 5 5 5 4 4
10 11 11 11 11 10 10 10 9 9 8 7 7 7 7 7 6 5 5 5 5 6 5 5 4 5 5 6 5 5 5 5 5 5 5 5 5 5 5 5 5 5 5 4
8 8 8 8 8 8 8 8 8 7 7 7 7 7 7 7 6 5 6 6 5 5 5 4 5 5 5 5 5 5 5 5 5 5 5 5 5 5 5 5 5 5 5 5
6 6 6 6 6 7 7 7 7 7 7 6 7 7 7 6 6 6 6 6 5 4 4 4 5 4 4 4 6 5 5 5 5 5 5 5 5 5 5 5 5 5 5 5
6 6 6 6 6 6 6 6 6 6 6 6 6 7 6 6 6 6 7 5 4 3 3 4 4 4 4 4 5 5 5 5 4 4 4 4 5 5 5 5 5 5 5 5
6 6 6 6 6 6 5 5 6 6 6 6 6 6 6 6 5 5 6 5 4 4 4 4 4 4 5 5 5 5 5 5 4 4 4 4 4 4 4 4 4 4 4 4
7 6 6 6 5 5 5 5 5 5 5 5 5 6 6 5 5 5 5 4 4 4 4 4 4 6 6 5 4 5 5 5 4 4 4 4 4 4 4 4 4 4 4 4
6 6 6 5 5 5 5 5 4 5 5 4 5 5 5 4 5 4 4 4 4 4 4 4 6 6 5 5 5 5 5 4 4 4 4 4 4 4 4 4 3 3 3 4
6 6 5 6 6 5 4 4 4 4 4 4 4 4 3 3 3 4 3 4 5 4 4 4 4 5 5 4 4 4 4 4 4 4 4 4 4 4 4 3 4 3 3 4
6 5 5 5 5 4 4 4 4 4 4 4 4 4 3 3 3 3 3 3 3 3 3 3 3 4 4 3 3 3 3 3 3 4 4 4 4 4 3 4 3 3 3 4
Wind_Direction
260 268 261 258 252 239 242 255 265 273 273 275 277 277 274 271 262 244 234 225 214 207 202 196 196 196 197 197 200 202 205 214 221 227 229 230 226 225 223 224 229 225 223 223
255 253 254 258 256 249 248 254 259 268 270 274 279 271 267 260 245 239 244 242 232 219 207 203 199 198 197 197 199 203 208 214 215 223 222 227 225 220 219 221 225 224 225 223
256 252 259 254 249 244 244 246 252 260 269 270 270 267 267 258 244 242 245 248 244 229 213 210 206 200 199 200 197 202 209 214 215 221 224 225 222 216 216 218 221 223 225 226
259 252 249 259 249 245 248 255 253 261 270 266 269 278 267 252 247 255 256 258 255 239 218 209 201 196 194 191 195 200 207 211 211 216 220 219 216 217 219 222 219 220 222 224
247 252 258 257 240 229 242 258 253 252 258 262 270 262 243 242 272 269 262 263 258 236 212 198 192 191 188 186 190 198 206 210 210 214 214 215 216 218 221 222 219 218 220 224
240 250 255 264 224 223 246 255 247 241 243 243 222 249 263 296 271 278 273 258 243 218 200 189 184 184 188 192 196 207 214 217 213 214 217 221 221 219 219 217 215 214 218 225
241 249 259 286 152 193 234 283 58 233 242 223 228 285 334 328 269 277 271 241 211 198 197 191 182 182 192 203 217 222 219 218 217 220 228 229 225 220 217 214 210 210 213 221
237 244 250 142 169 220 282 358 355 297 272 250 272 312 308 289 277 276 276 237 210 198 195 192 190 191 197 213 225 217 208 211 214 217 222 224 221 221 215 212 211 212 215 221
235 251 317 182 220 266 310 292 308 304 293 276 285 289 281 274 270 263 255 241 230 213 207 203 203 209 215 215 211 202 203 211 213 212 216 220 215 210 210 211 218 220 219 225
249 255 259 256 260 270 277 284 298 292 278 267 275 284 283 273 265 262 253 242 237 225 224 224 215 220 230 219 204 205 209 214 212 211 213 212 215 217 214 214 216 218 220 226
254 261 267 258 255 265 273 281 287 282 272 266 268 270 270 266 262 259 251 243 237 235 236 233 221 221 225 212 207 213 214 212 212 213 212 212 217 226 228 223 223 223 223 225
258 265 266 271 275 273 268 267 268 268 268 265 263 263 264 263 260 255 246 243 242 240 238 234 224 221 216 211 211 215 216 216 218 218 219 221 221 220 188 220 193 209 239 245
268 280 276 279 280 272 269 270 266 261 259 263 263 261 264 264 258 249 242 239 238 236 235 230 225 225 218 213 215 218 220 222 227 228 227 227 228 228 230 213 202 211 212 215
261 269 270 271 274 275 274 274 271 267 263 260 258 257 259 260 257 250 242 238 237 234 231 228 227 229 222 217 218 222 224 223 227 230 232 232 232 234 233 231 225 218 208 208
256 257 266 275 274 271 268 266 262 259 258 257 254 251 250 251 251 247 243 236 228 228 229 228 229 231 223 221 224 225 224 222 226 231 231 232 230 231 232 231 230 227 223 202
261 263 264 264 265 265 263 258 256 257 256 256 253 250 249 247 250 248 239 227 225 228 231 232 236 235 224 224 229 229 226 220 226 230 231 230 225 226 228 228 227 227 228 228
256 259 262 263 264 263 260 257 254 254 253 251 251 247 244 240 239 237 235 233 235 237 234 234 238 234 223 221 223 226 225 217 216 227 230 233 232 230 230 228 227 230 232 222
252 257 260 262 264 265 263 259 256 252 248 248 246 241 236 233 234 236 234 236 241 243 240 240 238 232 224 221 222 222 221 221 222 230 234 234 236 234 233 232 232 234 233 217
262 262 266 266 266 263 260 257 253 249 246 241 239 240 237 237 239 237 230 228 235 241 247 247 234 226 226 222 220 219 220 221 223 230 234 231 233 234 230 232 235 236 234 228
271 272 273 273 269 263 257 252 249 246 242 238 240 241 240 239 235 232 227 230 237 248 253 249 233 228 226 218 213 218 219 221 224 228 231 231 233 236 234 233 234 237 238 237
279 279 278 274 271 268 261 253 246 243 241 237 236 238 241 239 234 232 231 238 247 251 249 235 230 229 224 217 210 218 218 219 222 226 229 231 232 235 236 235 233 236 238 239
280 279 283 284 277 271 265 253 247 245 241 241 243 241 238 237 236 237 238 243 244 233 235 235 235 230 222 214 214 216 216 217 220 224 228 231 233 236 239 242 239 236 237 235
284 283 284 283 279 274 269 259 251 247 244 241 241 240 239 239 236 236 245 247 239 222 230 238 240 218 212 214 216 214 214 216 219 223 229 232 234 236 240 243 246 241 235 233
284 280 281 283 281 275 269 267 263 259 254 248 245 243 241 241 243 244 253 235 225 218 236 235 218 211 210 217 216 216 217 217 218 222 225 229 233 235 238 240 242 244 237 235
280 277 276 278 277 274 273 272 265 261 258 252 250 248 246 245 247 246 249 243 226 223 242 231 217 212 214 221 218 219 220 220 216 217 220 223 228 234 237 238 238 241 243 237
279 275 272 271 273 273 269 260 256 257 256 255 255 253 253 250 245 244 246 241 237 236 242 236 224 214 220 221 219 219 216 212 211 215 219 222 225 229 236 236 240 243 246 246
283 278 274 275 278 274 268 259 255 256 254 251 255 256 253 249 244 245 249 248 243 237 235 232 224 218 215 214 213 212 212 210 209 213 218 223 226 229 232 236 241 244 248 251
Height
1518 1518 1520 1520 1520 1521 1521 1517 1517 1512 1511 1508 1509 1512 1514 1515 1515 1516 1517 1517 1517 1518 1519 1519 1520 1521 1522 1523 1524 1525 1526 1527 1527 1528 1528 1528 1529 1529 1529 1530 1530 1531 1531 1531
1519 1518 1519 1519 1516 1516 1517 1514 1512 1511 1509 1506 1508 1510 1512 1512 1513 1514 1514 1514 1515 1515 1516 1517 1517 1518 1519 1520 1521 1522 1523 1524 1524 1525 1525 1525 1525 1526 1526 1527 1527 1528 1528 1528
1518 1516 1517 1516 1509 1510 1510 1508 1508 1508 1504 1505 1507 1508 1509 1510 1511 1511 1512 1512 1512 1513 1513 1514 1515 1515 1516 1517 1518 1519 1520 1520 1520 1521 1521 1521 1522 1522 1523 1523 1524 1524 1525 1525
1517 1517 1522 1505 1502 1504 1505 1503 1503 1502 1503 1505 1506 1507 1507 1508 1509 1509 1509 1510 1510 1510 1510 1511 1511 1512 1513 1514 1515 1516 1516 1517 1517 1517 1517 1517 1518 1518 1519 1520 1520 1521 1521 1521
1516 1516 1509 1502 1502 1503 1504 1501 1500 1501 1502 1504 1505 1505 1504 1505 1506 1507 1507 1507 1507 1507 1508 1508 1508 1509 1510 1511 1512 1512 1512 1513 1513 1513 1513 1513 1514 1514 1515 1516 1517 1517 1517 1518
1515 1516 1512 1501 1499 1501 1503 1500 1499 1500 1501 1502 1503 1501 1500 1503 1503 1504 1504 1504 1504 1504 1505 1505 1506 1506 1507 1508 1508 1508 1509 1509 1509 1510 1510 1510 1510 1511 1511 1512 1513 1513 1514 1514
1512 1511 1502 1498 1501 1502 1505 1499 1499 1499 1500 1501 1501 1501 1502 1501 1502 1502 1502 1501 1502 1502 1502 1503 1503 1504 1504 1505 1505 1505 1506 1506 1506 1506 1506 1506 1507 1507 1507 1508 1509 1509 1510 1510
1507 1509 1504 1499 1501 1500 1498 1498 1499 1499 1499 1500 1501 1500 1500 1500 1500 1499 1499 1499 1499 1499 1500 1500 1501 1501 1502 1502 1502 1502 1502 1502 1502 1503 1503 1503 1503 1503 1504 1504 1505 1505 1506 1506
1500 1499 1498 1499 1499 1499 1499 1499 1498 1498 1498 1499 1499 1498 1498 1498 1497 1497 1497 1497 1497 1497 1497 1498 1498 1498 1499 1499 1499 1499 1499 1499 1499 1499 1499 1499 1499 1499 1500 1500 1501 1501 1502 1502
1497 1494 1497 1498 1498 1497 1497 1497 1497 1497 1497 1496 1496 1496 1496 1495 1495 1495 1495 1494 1494 1494 1494 1494 1495 1495 1495 1496 1495 1496 1496 1495 1495 1495 1495 1495 1495 1496 1496 1496 1496 1497 1497 1498
1493 1493 1494 1494 1494 1494 1494 1494 1494 1494 1494 1494 1493 1493 1493 1492 1492 1492 1492 1492 1492 1491 1491 1491 1491 1491 1492 1492 1492 1492 1492 1492 1492 1492 1492 1492 1492 1491 1491 1492 1492 1493 1493 1494
1490 1490 1491 1490 1491 1491 1490 1490 1490 1490 1490 1490 1490 1489 1489 1489 1489 1488 1488 1488 1488 1488 1488 1488 1488 1488 1488 1488 1489 1489 1489 1489 1489 1489 1488 1488 1488 1488 1487 1488 1488 1488 1489 1489
1489 1488 1488 1487 1487 1487 1486 1486 1486 1486 1485 1485 1485 1486 1485 1485 1485 1484 1484 1485 1485 1485 1485 1484 1485 1485 1485 1485 1485 1485 1485 1485 1485 1485 1485 1484 1484 1484 1484 1484 1484 1484 1484 1485
1485 1485 1483 1483 1483 1483 1482 1482 1481 1481 1481 1481 1481 1481 1481 1481 1480 1480 1480 1480 1481 1481 1481 1481 1481 1481 1481 1481 1481 1481 1481 1481 1481 1481 1481 1480 1480 1480 1480 1480 1480 1480 1480 1481
1479 1480 1479 1478 1478 1477 1477 1477 1477 1476 1476 1476 1476 1476 1476 1476 1476 1476 1476 1476 1476 1476 1477 1477 1477 1477 1477 1477 1477 1477 1477 1477 1477 1477 1477 1476 1476 1476 1476 1476 1476 1476 1476 1476
1474 1473 1473 1473 1472 1472 1472 1472 1471 1471 1471 1471 1471 1471 1471 1471 1471 1471 1471 1471 1472 1472 1472 1472 1472 1472 1472 1472 1472 1472 1472 1472 1473 1473 1472 1472 1472 1472 1472 1472 1472 1472 1472 1472
1469 1467 1467 1467 1466 1466 1466 1466 1466 1465 1466 1466 1466 1466 1466 1466 1466 1466 1466 1467 1467 1468 1467 1467 1468 1468 1467 1468 1468 1467 1468 1468 1468 1468 1468 1468 1468 1468 1468 1468 1468 1468 1468 1468
1463 1462 1462 1461 1461 1460 1460 1460 1460 1460 1460 1461 1461 1461 1461 1461 1461 1461 1461 1462 1462 1462 1462 1462 1462 1462 1462 1463 1463 1463 1463 1463 1463 1463 1463 1463 1463 1463 1464 1464 1464 1464 1463 1464
1457 1456 1456 1456 1455 1455 1454 1454 1454 1454 1455 1455 1456 1456 1456 1456 1456 1456 1457 1457 1456 1456 1457 1457 1457 1457 1457 1457 1457 1458 1458 1458 1458 1458 1458 1458 1459 1458 1459 1459 1459 1459 1459 1459
1451 1451 1450 1450 1449 1449 1448 1448 1449 1449 1449 1450 1450 1450 1450 1451 1451 1451 1451 1451 1451 1451 1452 1452 1452 1452 1452 1452 1452 1452 1453 1453 1453 1453 1453 1453 1453 1454 1454 1454 1454 1454 1454 1454
1447 1446 1445 1444 1444 1443 1443 1443 1443 1443 1444 1444 1445 1445 1445 1445 1446 1446 1446 1446 1446 1447 1447 1446 1446 1446 1447 1447 1447 1447 1447 1447 1447 1448 1448 1448 1448 1448 1448 1448 1448 1448 1448 1448
1443 1442 1441 1440 1439 1438 1438 1438 1438 1438 1439 1439 1439 1440 1440 1440 1440 1440 1440 1441 1441 1441 1441 1441 1441 1441 1441 1442 1442 1442 1442 1442 1442 1442 1442 1442 1443 1443 1443 1443 1443 1443 1443 1443
1439 1438 1437 1436 1435 1434 1433 1433 1433 1434 1434 1434 1434 1434 1434 1434 1435 1435 1435 1435 1435 1435 1435 1435 1436 1436 1436 1436 1437 1437 1437 1437 1437 1437 1437 1437 1438 1438 1438 1438 1438 1438 1438 1438
1435 1434 1433 1432 1431 1430 1429 1428 1428 1429 1429 1429 1429 1429 1429 1429 1429 1430 1430 1430 1430 1430 1430 1430 1430 1431 1431 1431 1432 1432 1432 1432 1432 1433 1433 1433 1433 1433 1433 1433 1433 1433 1433 1433
1431 1430 1429 1427 1427 1425 1425 1424 1424 1424 1424 1424 1424 1424 1424 1424 1424 1424 1424 1424 1424 1425 1425 1425 1425 1425 1426 1426 1426 1427 1427 1427 1427 1428 1428 1428 1428 1428 1428 1427 1427 1427 1427 1428
1427 1426 1424 1424 1423 1422 1421 1420 1419 1419 1419 1419 1419 1419 1419 1419 1419 1419 1419 1419 1419 1419 1419 1419 1419 1420 1420 1421 1421 1421 1422 1422 1422 1422 1423 1423 1423 1423 1423 1423 1423 1423 1423 1423
1422 1421 1420 1419 1418 1417 1416 1416 1415 1414 1414 1414 1414 1414 1414 1414 1414 1414 1414 1414 1414 1414 1414 1414 1414 1415 1415 1416 1416 1416 1417 1417 1417 1417 1418 1418 1418 1418 1418 1418 1418 1418 1418 1418